When you browse on this site, cookies collect data to enhance your experience and personalize the content and advertising you see.
Visit our Privacy Policy to learn more. By continuing to use the site, you agree to this use of cookies and data.
  • In Romania
  • List of Countries
  • For 7 days
  • Water Temperature
  • Satellite Maps
  • Weather Map
  • Weather Widgets
  • user-avatar
    Login

    Hourly Weather Ozorków

    Today, 20 February, Wednesday

    Time Temperature Precipitation Wind Pressure Humidity
    00:00 +3°C° 0 mm 5 mps 749 mmHg 87%
    01:00 +3°C° 0 mm 4 mps 749 mmHg 86%
    02:00 +2°C° 0 mm 5 mps 749 mmHg 87%
    03:00 +2°C° 0 mm 5 mps 749 mmHg 89%
    04:00 +1°C° 0 mm 5 mps 749 mmHg 90%
    05:00 +2°C° 0 mm 6 mps 750 mmHg 89%
    06:00 +2°C° 0 mm 6 mps 750 mmHg 88%
    07:00 +2°C° 0 mm 6 mps 750 mmHg 87%
    08:00 +2°C° 0 mm 6 mps 751 mmHg 83%
    09:00 +2°C° 0 mm 6 mps 751 mmHg 79%
    10:00 +3°C° 0 mm 7 mps 752 mmHg 75%
    11:00 +3°C° 0.1 mm 7 mps 752 mmHg 73%
    12:00 +3°C° 0.1 mm 7 mps 752 mmHg 71%
    13:00 +3°C° 0.1 mm 7 mps 752 mmHg 70%
    14:00 +3°C° 0.1 mm 7 mps 752 mmHg 71%
    15:00 +3°C° 0.1 mm 6 mps 753 mmHg 72%
    16:00 +3°C° 0.1 mm 6 mps 753 mmHg 73%
    17:00 +3°C° 0 mm 6 mps 753 mmHg 75%
    18:00 +3°C° 0 mm 5 mps 753 mmHg 76%
    19:00 +3°C° 0 mm 5 mps 754 mmHg 77%
    20:00 +3°C° 0 mm 5 mps 754 mmHg 78%
    21:00 +3°C° 0 mm 4 mps 754 mmHg 80%
    22:00 +3°C° 0 mm 4 mps 755 mmHg 81%
    23:00 +3°C° 0 mm 3 mps 755 mmHg 83%

    Tomorrow, 21 February, Thursday

    Time Temperature Precipitation Wind Pressure Humidity
    00:00 +3°C° 0 mm 3 mps 755 mmHg 85%
    01:00 +3°C° 0 mm 3 mps 755 mmHg 88%
    02:00 +3°C° 0 mm 3 mps 755 mmHg 89%
    03:00 +3°C° 0 mm 3 mps 755 mmHg 90%
    04:00 +3°C° 0 mm 3 mps 755 mmHg 91%
    05:00 +3°C° 0.1 mm 3 mps 755 mmHg 92%
    06:00 +3°C° 0.1 mm 4 mps 755 mmHg 92%
    07:00 +3°C° 0.1 mm 4 mps 755 mmHg 93%
    08:00 +4°C° 0.1 mm 4 mps 755 mmHg 89%
    09:00 +3°C° 0.1 mm 5 mps 755 mmHg 86%
    10:00 +3°C° 0.1 mm 5 mps 754 mmHg 83%
    11:00 +3°C° 0.6 mm 6 mps 754 mmHg 83%
    12:00 +3°C° 0.6 mm 6 mps 754 mmHg 84%
    13:00 +3°C° 0.6 mm 6 mps 754 mmHg 84%
    14:00 +3°C° 1.1 mm 6 mps 753 mmHg 85%
    15:00 +3°C° 1.1 mm 6 mps 753 mmHg 86%
    16:00 +3°C° 1.1 mm 6 mps 752 mmHg 87%
    17:00 +3°C° 0.6 mm 6 mps 752 mmHg 88%
    18:00 +3°C° 0.6 mm 6 mps 752 mmHg 89%
    19:00 +3°C° 0.6 mm 6 mps 752 mmHg 89%
    20:00 +4°C° 0.4 mm 6 mps 752 mmHg 90%
    21:00 +4°C° 0.4 mm 6 mps 752 mmHg 91%
    22:00 +4°C° 0.4 mm 6 mps 751 mmHg 92%
    23:00 +4°C° 0.7 mm 6 mps 751 mmHg 92%

    Day after tomorrow, 22 February, Friday

    Time Temperature Precipitation Wind Pressure Humidity
    00:00 +5°C° 0.7 mm 5 mps 752 mmHg 93%
    01:00 +5°C° 0.7 mm 5 mps 752 mmHg 93%
    02:00 +3°C° 0.6 mm 6 mps 752 mmHg 92%
    03:00 +3°C° 0.6 mm 6 mps 753 mmHg 91%
    04:00 +2°C° 0.6 mm 6 mps 753 mmHg 90%
    05:00 -1°C° 0.1 mm 7 mps 754 mmHg 85%
    06:00 -2°C° 0.1 mm 7 mps 756 mmHg 81%
    07:00 -4°C° 0.1 mm 8 mps 757 mmHg 77%
    08:00 -3°C° 0 mm 7 mps 758 mmHg 71%
    09:00 -3°C° 0 mm 7 mps 760 mmHg 65%
    10:00 -3°C° 0 mm 7 mps 761 mmHg 59%
    11:00 -3°C° 0 mm 6 mps 762 mmHg 56%
    12:00 -3°C° 0 mm 6 mps 763 mmHg 53%
    13:00 -3°C° 0 mm 6 mps 764 mmHg 49%
    14:00 -3°C° 0 mm 6 mps 764 mmHg 49%
    15:00 -2°C° 0 mm 5 mps 764 mmHg 50%
    16:00 -4°C° 0 mm 5 mps 765 mmHg 50%
    17:00 -4°C° 0 mm 5 mps 765 mmHg 52%
    18:00 -5°C° 0 mm 5 mps 766 mmHg 55%
    19:00 -4°C° 0 mm 4 mps 767 mmHg 57%
    20:00 -5°C° 0 mm 4 mps 767 mmHg 55%
    21:00 -5°C° 0 mm 4 mps 768 mmHg 53%
    22:00 -5°C° 0 mm 4 mps 768 mmHg 50%
    23:00 -5°C° 0 mm 4 mps 768 mmHg 47%

    23 February, Saturday

    Time Temperature Precipitation Wind Pressure Humidity
    00:00 -5°C° 0 mm 4 mps 769 mmHg 45%
    01:00 -5°C° 0 mm 4 mps 769 mmHg 42%
    02:00 -5°C° 0 mm 4 mps 769 mmHg 41%
    03:00 -6°C° 0 mm 3 mps 769 mmHg 40%
    04:00 -6°C° 0 mm 3 mps 768 mmHg 38%
    05:00 -6°C° 0 mm 3 mps 769 mmHg 40%
    06:00 -6°C° 0 mm 3 mps 769 mmHg 41%
    07:00 -6°C° 0 mm 3 mps 770 mmHg 42%
    08:00 -6°C° 0 mm 3 mps 770 mmHg 40%
    09:00 -5°C° 0 mm 3 mps 770 mmHg 37%
    10:00 -5°C° 0 mm 3 mps 770 mmHg 35%
    11:00 -3°C° 0 mm 2 mps 770 mmHg 33%
    12:00 -2°C° 0 mm 2 mps 770 mmHg 30%
    13:00 0°C° 0 mm 1 mps 769 mmHg 28%
    14:00 0°C° 0 mm 1 mps 769 mmHg 29%
    15:00 -2°C° 0 mm 2 mps 769 mmHg 30%
    16:00 -1°C° 0 mm 2 mps 769 mmHg 31%
    17:00 0°C° 0 mm 1 mps 769 mmHg 34%
    18:00 -1°C° 0 mm 1 mps 769 mmHg 37%
    19:00 -1°C° 0 mm 1 mps 769 mmHg 39%
    20:00 -1°C° 0 mm 1 mps 769 mmHg 39%
    21:00 -2°C° 0 mm 0 mps 769 mmHg 38%
    22:00 -1°C° 0 mm 0 mps 769 mmHg 38%
    23:00 -1°C° 0 mm 0 mps 768 mmHg 38%

    24 February, Sunday

    Time Temperature Precipitation Wind Pressure Humidity
    00:00 0°C° 0 mm 1 mps 768 mmHg 38%
    01:00 0°C° 0 mm 1 mps 768 mmHg 38%
    02:00 0°C° 0 mm 1 mps 768 mmHg 39%
    03:00 0°C° 0 mm 1 mps 768 mmHg 39%
    04:00 -2°C° 0 mm 2 mps 767 mmHg 40%
    05:00 -2°C° 0 mm 2 mps 767 mmHg 41%
    06:00 -3°C° 0 mm 2 mps 767 mmHg 42%
    07:00 -3°C° 0 mm 2 mps 767 mmHg 42%
    08:00 -2°C° 0 mm 2 mps 767 mmHg 39%
    09:00 -1°C° 0 mm 2 mps 767 mmHg 36%
    10:00 +1°C° 0 mm 2 mps 767 mmHg 33%
    11:00 +1°C° 0 mm 3 mps 767 mmHg 34%
    12:00 +2°C° 0 mm 3 mps 766 mmHg 34%
    13:00 +3°C° 0 mm 3 mps 766 mmHg 35%
    14:00 +2°C° 0 mm 3 mps 766 mmHg 40%
    15:00 +3°C° 0 mm 2 mps 765 mmHg 45%
    16:00 +3°C° 0 mm 2 mps 765 mmHg 50%
    17:00 +2°C° 0 mm 2 mps 765 mmHg 54%
    18:00 +1°C° 0 mm 2 mps 766 mmHg 57%
    19:00 -1°C° 0 mm 2 mps 766 mmHg 61%
    20:00 +1°C° 0 mm 1 mps 766 mmHg 62%
    21:00 +1°C° 0 mm 1 mps 766 mmHg 63%
    22:00 +1°C° 0 mm 1 mps 766 mmHg 64%
    23:00 -1°C° 0 mm 2 mps 766 mmHg 65%

    25 February, Monday

    Time Temperature Precipitation Wind Pressure Humidity
    00:00 -1°C° 0 mm 2 mps 766 mmHg 66%
    01:00 -1°C° 0 mm 2 mps 765 mmHg 66%
    02:00 -1°C° 0 mm 2 mps 765 mmHg 66%
    03:00 -1°C° 0 mm 2 mps 765 mmHg 66%
    04:00 -1°C° 0 mm 2 mps 765 mmHg 66%
    05:00 -1°C° 0 mm 2 mps 765 mmHg 67%
    06:00 -1°C° 0 mm 3 mps 765 mmHg 69%
    07:00 -1°C° 0 mm 3 mps 765 mmHg 70%
    08:00 0°C° 0 mm 3 mps 765 mmHg 68%
    09:00 +1°C° 0 mm 3 mps 765 mmHg 66%
    10:00 +1°C° 0 mm 4 mps 765 mmHg 64%
    11:00 +3°C° 0 mm 4 mps 764 mmHg 66%
    12:00 +4°C° 0 mm 4 mps 764 mmHg 69%
    13:00 +5°C° 0 mm 5 mps 764 mmHg 71%
    14:00 +5°C° 0 mm 4 mps 764 mmHg 71%
    15:00 +5°C° 0 mm 4 mps 764 mmHg 70%
    16:00 +6°C° 0 mm 4 mps 764 mmHg 70%
    17:00 +4°C° 0 mm 4 mps 764 mmHg 72%
    18:00 +3°C° 0 mm 4 mps 764 mmHg 74%
    19:00 +1°C° 0 mm 4 mps 765 mmHg 76%
    20:00 +1°C° 0 mm 4 mps 765 mmHg 80%
    21:00 0°C° 0 mm 4 mps 765 mmHg 83%
    22:00 0°C° 0 mm 4 mps 765 mmHg 87%
    23:00 0°C° 0 mm 3 mps 765 mmHg 88%
    Show more